Regional Weather Roundup
Issued by NWS

Home | Current Version | Previous Version | Graphics & Text | Print | Product List | Glossary On
Versions: 1 2 3 4 5 6 7 8 9 10 11 12 13 14 15 16 17 18 19 20 21 22 23 24 25 26 27 28 29 30 31 32 33 34 35 36 37 38 39 40 41 42 43 44 45 46 47 48 49 50
000
ASUS43 KBIS 280220
RWRND

NORTH DAKOTA REGIONAL WEATHER ROUNDUP
NATIONAL WEATHER SERVICE BISMARCK ND
900 PM CDT SUN JUL 27 2014

NOTE: "FAIR" INDICATES FEW OR NO CLOUDS BELOW 12,000 FEET WITH NO
SIGNIFICANT WEATHER AND/OR OBSTRUCTIONS TO VISIBILITY.


NDZ001>003-009>011-017-280300-
NORTHWEST NORTH DAKOTA

CITY           SKY/WX    TMP DP  RH WIND       PRES   REMARKS
WILLISTON      CLEAR     69  51  52 NE8       30.28S
MINOT          CLEAR     63  53  70 N3        30.26F
MINOT AFB      CLEAR     66  53  63 N5        30.26S
$$

NDZ018>021-031>035-040>046-280300-
SOUTHWEST NORTH DAKOTA

CITY           SKY/WX    TMP DP  RH WIND       PRES   REMARKS
BISMARCK       CLEAR     65  53  65 NE7       30.28R
DICKINSON      CLEAR     63  53  70 E6        30.28R
GARRISON         N/A     63  54  72 CALM      30.27S
HETTINGER ARPT CLEAR     64  54  69 NE6       30.30R
$$

NDZ004>008-012>016-024-026-027-054-280300-
NORTHEAST NORTH DAKOTA

CITY           SKY/WX    TMP DP  RH WIND       PRES   REMARKS
GRAND FORKS    MOCLDY    63  57  81 N6        30.18S
GRND FRKS AFB  CLOUDY    62  59  88 NW5       30.20S
DEVILS LAKE    CLOUDY    63  54  72 NW7       30.23S
$$

NDZ022-023-025-028>030-036>039-047>053-280300-
SOUTHEAST NORTH DAKOTA

CITY           SKY/WX    TMP DP  RH WIND       PRES   REMARKS
FARGO          CLOUDY    64  56  75 N10       30.18R
JAMESTOWN      CLOUDY    62  54  74 N7        30.23R
$$




USA.gov is the U.S. government's official web portal to all federal, state and local government web resources and services.